When you browse on this site, cookies collect data to enhance your experience and personalize the content and advertising you see.
Visit our Privacy Policy to learn more. By continuing to use the site, you agree to this use of cookies and data.
  • în România
  • Lista ţărilor
  • Pe 7 zile
  • Temperatura apei
  • Meteo pe hartă
  • Widget-uri
  • user-avatar
    Intrare

    Meteo pe oră la Puławy

    Astăzi, 22 August, Joi

    Timp Temperatura Precipitaţii Vânt Presiune Umiditate
    00:00 +15°C° 0 mm 1 m/s 759 mmHg 78%
    01:00 +14°C° 0 mm 1 m/s 759 mmHg 79%
    02:00 +14°C° 0 mm 1 m/s 759 mmHg 82%
    03:00 +14°C° 0 mm 1 m/s 759 mmHg 84%
    04:00 +14°C° 0 mm 1 m/s 759 mmHg 87%
    05:00 +15°C° 0 mm 1 m/s 759 mmHg 84%
    06:00 +16°C° 0 mm 2 m/s 760 mmHg 82%
    07:00 +17°C° 0 mm 2 m/s 760 mmHg 80%
    08:00 +18°C° 0 mm 2 m/s 760 mmHg 72%
    09:00 +20°C° 0 mm 3 m/s 760 mmHg 65%
    10:00 +21°C° 0 mm 3 m/s 760 mmHg 58%
    11:00 +22°C° 0 mm 3 m/s 760 mmHg 55%
    12:00 +24°C° 0 mm 3 m/s 759 mmHg 52%
    13:00 +24°C° 0 mm 3 m/s 759 mmHg 49%
    14:00 +24°C° 0 mm 3 m/s 759 mmHg 51%
    15:00 +24°C° 0 mm 3 m/s 759 mmHg 52%
    16:00 +24°C° 0 mm 3 m/s 758 mmHg 54%
    17:00 +21°C° 0 mm 3 m/s 758 mmHg 58%
    18:00 +20°C° 0 mm 3 m/s 758 mmHg 63%
    19:00 +19°C° 0 mm 3 m/s 758 mmHg 68%
    20:00 +18°C° 0 mm 3 m/s 759 mmHg 71%
    21:00 +17°C° 0 mm 3 m/s 759 mmHg 74%
    22:00 +16°C° 0 mm 2 m/s 759 mmHg 77%
    23:00 +16°C° 0 mm 3 m/s 759 mmHg 79%

    Mâine, 23 August, Vineri

    Timp Temperatura Precipitaţii Vânt Presiune Umiditate
    00:00 +14°C° 0 mm 3 m/s 759 mmHg 80%
    01:00 +14°C° 0 mm 3 m/s 759 mmHg 82%
    02:00 +14°C° 0 mm 3 m/s 759 mmHg 83%
    03:00 +13°C° 0 mm 3 m/s 758 mmHg 83%
    04:00 +13°C° 0 mm 3 m/s 758 mmHg 84%
    05:00 +14°C° 0 mm 3 m/s 758 mmHg 80%
    06:00 +17°C° 0 mm 3 m/s 759 mmHg 77%
    07:00 +18°C° 0 mm 4 m/s 759 mmHg 73%
    08:00 +20°C° 0 mm 4 m/s 759 mmHg 69%
    09:00 +21°C° 0 mm 4 m/s 759 mmHg 64%
    10:00 +23°C° 0 mm 4 m/s 759 mmHg 59%
    11:00 +25°C° 0 mm 4 m/s 759 mmHg 56%
    12:00 +26°C° 0 mm 4 m/s 758 mmHg 53%
    13:00 +26°C° 0 mm 4 m/s 758 mmHg 50%
    14:00 +26°C° 0 mm 4 m/s 758 mmHg 50%
    15:00 +26°C° 0 mm 4 m/s 758 mmHg 51%
    16:00 +26°C° 0 mm 4 m/s 757 mmHg 51%
    17:00 +23°C° 0 mm 4 m/s 757 mmHg 57%
    18:00 +21°C° 0 mm 3 m/s 757 mmHg 62%
    19:00 +20°C° 0 mm 3 m/s 757 mmHg 68%
    20:00 +19°C° 0 mm 3 m/s 757 mmHg 69%
    21:00 +18°C° 0 mm 3 m/s 757 mmHg 70%
    22:00 +18°C° 0 mm 3 m/s 757 mmHg 72%
    23:00 +17°C° 0 mm 3 m/s 757 mmHg 73%

    Poimâine, 24 August, Sâmbătă

    Timp Temperatura Precipitaţii Vânt Presiune Umiditate
    00:00 +17°C° 0 mm 3 m/s 757 mmHg 74%
    01:00 +16°C° 0 mm 3 m/s 757 mmHg 75%
    02:00 +16°C° 0 mm 3 m/s 757 mmHg 75%
    03:00 +16°C° 0 mm 3 m/s 757 mmHg 75%
    04:00 +16°C° 0 mm 3 m/s 757 mmHg 76%
    05:00 +17°C° 0 mm 4 m/s 756 mmHg 74%
    06:00 +18°C° 0 mm 4 m/s 756 mmHg 73%
    07:00 +18°C° 0 mm 4 m/s 756 mmHg 71%
    08:00 +20°C° 0 mm 5 m/s 756 mmHg 67%
    09:00 +22°C° 0 mm 5 m/s 756 mmHg 62%
    10:00 +23°C° 0 mm 5 m/s 756 mmHg 58%
    11:00 +25°C° 0 mm 5 m/s 756 mmHg 56%
    12:00 +26°C° 0 mm 5 m/s 756 mmHg 55%
    13:00 +27°C° 0 mm 5 m/s 755 mmHg 53%
    14:00 +27°C° 0 mm 5 m/s 755 mmHg 54%
    15:00 +26°C° 0 mm 5 m/s 755 mmHg 56%
    16:00 +26°C° 0 mm 4 m/s 755 mmHg 57%
    17:00 +25°C° 0 mm 4 m/s 755 mmHg 62%
    18:00 +22°C° 0 mm 4 m/s 755 mmHg 67%
    19:00 +21°C° 0 mm 3 m/s 755 mmHg 71%
    20:00 +20°C° 0 mm 3 m/s 755 mmHg 71%
    21:00 +19°C° 0 mm 3 m/s 755 mmHg 71%
    22:00 +19°C° 0 mm 4 m/s 755 mmHg 71%
    23:00 +18°C° 0 mm 3 m/s 755 mmHg 72%

    25 August, Duminică

    Timp Temperatura Precipitaţii Vânt Presiune Umiditate
    00:00 +18°C° 0 mm 3 m/s 755 mmHg 73%
    01:00 +18°C° 0 mm 3 m/s 754 mmHg 73%
    02:00 +17°C° 0 mm 3 m/s 754 mmHg 73%
    03:00 +17°C° 0 mm 3 m/s 754 mmHg 73%
    04:00 +17°C° 0 mm 3 m/s 754 mmHg 73%
    05:00 +18°C° 0 mm 4 m/s 754 mmHg 71%
    06:00 +19°C° 0 mm 4 m/s 754 mmHg 70%
    07:00 +19°C° 0 mm 4 m/s 754 mmHg 69%
    08:00 +21°C° 0 mm 4 m/s 754 mmHg 65%
    09:00 +23°C° 0 mm 5 m/s 755 mmHg 61%
    10:00 +26°C° 0 mm 5 m/s 755 mmHg 57%
    11:00 +27°C° 0 mm 5 m/s 755 mmHg 54%
    12:00 +28°C° 0 mm 5 m/s 755 mmHg 52%
    13:00 +29°C° 0 mm 5 m/s 754 mmHg 49%
    14:00 +28°C° 0 mm 5 m/s 754 mmHg 50%
    15:00 +28°C° 0 mm 5 m/s 754 mmHg 51%
    16:00 +28°C° 0 mm 5 m/s 754 mmHg 52%
    17:00 +26°C° 0 mm 4 m/s 754 mmHg 58%
    18:00 +25°C° 0 mm 4 m/s 754 mmHg 63%
    19:00 +22°C° 0 mm 3 m/s 754 mmHg 69%
    20:00 +21°C° 0 mm 4 m/s 754 mmHg 69%
    21:00 +20°C° 0 mm 4 m/s 755 mmHg 70%
    22:00 +20°C° 0 mm 4 m/s 755 mmHg 70%
    23:00 +19°C° 0 mm 4 m/s 755 mmHg 71%

    26 August, Luni

    Timp Temperatura Precipitaţii Vânt Presiune Umiditate
    00:00 +19°C° 0 mm 4 m/s 755 mmHg 71%
    01:00 +18°C° 0 mm 4 m/s 755 mmHg 72%
    02:00 +18°C° 0 mm 4 m/s 755 mmHg 75%
    03:00 +18°C° 0 mm 4 m/s 755 mmHg 78%
    04:00 +18°C° 0 mm 4 m/s 755 mmHg 82%
    05:00 +19°C° 0 mm 4 m/s 755 mmHg 78%
    06:00 +20°C° 0 mm 4 m/s 755 mmHg 75%
    07:00 +21°C° 0 mm 5 m/s 755 mmHg 71%
    08:00 +22°C° 0 mm 5 m/s 755 mmHg 66%
    09:00 +25°C° 0 mm 5 m/s 755 mmHg 60%
    10:00 +27°C° 0 mm 5 m/s 755 mmHg 55%
    11:00 +28°C° 0 mm 5 m/s 755 mmHg 53%
    12:00 +28°C° 0 mm 5 m/s 755 mmHg 51%
    13:00 +29°C° 0 mm 5 m/s 755 mmHg 50%
    14:00 +29°C° 0 mm 5 m/s 755 mmHg 51%
    15:00 +29°C° 0 mm 5 m/s 755 mmHg 53%
    16:00 +29°C° 0 mm 5 m/s 754 mmHg 54%
    17:00 +27°C° 0 mm 4 m/s 754 mmHg 60%
    18:00 +25°C° 0 mm 4 m/s 754 mmHg 66%
    19:00 +22°C° 0 mm 3 m/s 754 mmHg 73%
    20:00 +22°C° 0 mm 3 m/s 754 mmHg 73%
    21:00 +21°C° 0 mm 3 m/s 755 mmHg 74%
    22:00 +20°C° 0 mm 3 m/s 755 mmHg 75%
    23:00 +20°C° 0 mm 3 m/s 755 mmHg 76%

    27 August, Marţi

    Timp Temperatura Precipitaţii Vânt Presiune Umiditate
    00:00 +19°C° 0 mm 3 m/s 754 mmHg 78%
    01:00 +19°C° 0 mm 3 m/s 754 mmHg 79%
    02:00 +18°C° 0 mm 3 m/s 754 mmHg 79%
    03:00 +18°C° 0 mm 3 m/s 754 mmHg 80%
    04:00 +18°C° 0 mm 3 m/s 754 mmHg 80%
    05:00 +19°C° 0 mm 3 m/s 754 mmHg 76%
    06:00 +19°C° 0 mm 3 m/s 754 mmHg 72%
    07:00 +20°C° 0 mm 3 m/s 754 mmHg 69%
    08:00 +22°C° 0 mm 3 m/s 754 mmHg 64%
    09:00 +25°C° 0 mm 3 m/s 754 mmHg 59%
    10:00 +27°C° 0 mm 3 m/s 754 mmHg 54%
    11:00 +28°C° 0 mm 3 m/s 754 mmHg 51%
    12:00 +29°C° 0 mm 3 m/s 754 mmHg 49%
    13:00 +30°C° 0 mm 3 m/s 753 mmHg 47%
    14:00 +30°C° 0 mm 3 m/s 753 mmHg 49%
    15:00 +30°C° 0 mm 3 m/s 753 mmHg 51%
    16:00 +30°C° 0 mm 3 m/s 753 mmHg 54%
    17:00 +28°C° 0 mm 3 m/s 752 mmHg 60%
    18:00 +26°C° 0 mm 3 m/s 752 mmHg 67%
    19:00 +24°C° 0 mm 3 m/s 752 mmHg 73%
    20:00 +24°C° 0 mm 3 m/s 752 mmHg 75%
    21:00 +22°C° 0 mm 3 m/s 752 mmHg 76%
    22:00 +22°C° 0 mm 3 m/s 752 mmHg 78%
    23:00 +21°C° 0 mm 3 m/s 752 mmHg 78%
    Arată mai mult